铱星星座 111星 (IRIDIUM 111)

导读

IRIDIUM 111(铱星111)是美国铱星系统下一代低轨通信卫星,于北京时间2017年1月14日发射。它隶属于新一代铱星星座(Iridium Next),用于替换初代老旧卫星,维持全球无缝覆盖的卫星通信服务。作为低轨卫星,运行于约780公里高度的极地轨道,通过星上处理与星际链路技术,为全球偏远地区、海事航空等场景提供可靠语音与数据通信,支撑铱星系统持续提供全球移动通信服务。

基本信息
目录编号:
41926
目录名称:
IRIDIUM 111
国际标识:
2017-003K
轨道中心:
EARTH
卫星名称:
铱星星座 111星
卫星全名:
铱星星座 111星 (IRIDIUM 111)
卫星状态:
在轨 (已飞行3481 天)
发射日期:
2017-01-14 UTC
国别 :
美国 (US)
星等 :
--
轨道信息
数据来源 国际轨道数据 AOE轨道数据
星历时间 2026-07-27T10:21:26+0800
20小时前
查看轨道信息
2026-07-25T05:00:00+0800
3天前
查看轨道信息
半长轴 7155.805km 7155.806km
偏心率 0.000216 0.0002028
轨道倾角 86.393° 86.394°
近地点辐角 87.154° 87.517°
升交点赤经 71.685° 72.615°
平近点角 272.990° 320.982°
近地点 776.122km 776.217km
远地点 779.214km 779.121km
周期 100.403分钟 100.403分钟
每日圈数 14.342176 14.342174
详细信息
平衡模式:
三轴稳定
覆盖范围:
全球
运营商:
铱星通信公司
运营商所在国:
美国
制造商(研发单位):
阿莱尼亚宇航公司
制造商所在国:
意大利
使用方式:
暂无
卫星简介
铱星(Iridium)是由共66个运作中的通信卫星组成的卫星通信系统。这个系统原本规划77个通信卫星,所以用原子序数为77的铱元素来命名。铱卫星允许人们使用手持型电子设备进行全球性的语音及数据通讯。该卫星仍在工作。
2D轨道图
3D轨道图
轨道高度分析图
轨道倾角分析图
轨道综合分析图
查看轨道综合分析图